Time,TemperatureF,DewpointF,PressureIn,WindDirection,WindDirectionDegrees,WindSpeedMPH,WindSpeedGustMPH,Humidity,HourlyPrecipIn,Conditions,Clouds,dailyrainin,SolarRadiationWatts/m^2,SoftwareType,DateUTC
2013-10-04 00:05:00,75.8,66.1,29.77,SSE,164,9.0,15.0,72,0.00,,,0.00,0,Wunderground v.1.15,2013-10-04 05:05:00,
2013-10-04 00:11:00,75.8,66.1,29.77,SSE,158,9.0,9.0,72,0.00,,,0.00,0,Wunderground v.1.15,2013-10-04 05:11:00,
2013-10-04 00:15:00,75.7,66.0,29.77,SSE,160,10.0,15.0,72,0.00,,,0.00,0,Wunderground v.1.15,2013-10-04 05:15:00,
2013-10-04 00:21:00,75.6,65.9,29.77,SSE,153,10.0,10.0,72,0.00,,,0.00,0,Wunderground v.1.15,2013-10-04 05:21:00,
2013-10-04 00:23:00,75.6,66.3,29.77,SSE,150,10.0,11.0,73,0.00,,,0.00,0,Wunderground v.1.15,2013-10-04 05:23:00,
2013-10-04 00:25:00,75.5,66.2,29.76,SSE,157,10.0,15.0,73,0.00,,,0.00,0,Wunderground v.1.15,2013-10-04 05:25:00,
2013-10-04 00:27:00,75.5,66.2,29.76,SSE,149,10.0,15.0,73,0.00,,,0.00,0,Wunderground v.1.15,2013-10-04 05:27:00,
2013-10-04 00:33:00,75.6,66.3,29.77,SSE,152,9.0,15.0,73,0.00,,,0.00,0,Wunderground v.1.15,2013-10-04 05:33:00,
2013-10-04 00:39:00,75.6,65.9,29.77,SE,137,9.0,15.0,72,0.00,,,0.00,0,Wunderground v.1.15,2013-10-04 05:39:00,
2013-10-04 00:43:00,75.6,65.9,29.76,SSE,147,9.0,15.0,72,0.00,,,0.00,0,Wunderground v.1.15,2013-10-04 05:43:00,
2013-10-04 00:49:00,75.6,65.9,29.77,SE,143,9.0,15.0,72,0.00,,,0.00,0,Wunderground v.1.15,2013-10-04 05:49:00,
2013-10-04 00:56:00,75.4,65.7,29.77,SSE,154,9.0,15.0,72,0.00,,,0.00,0,Wunderground v.1.15,2013-10-04 05:56:00,
2013-10-04 01:01:00,75.4,65.7,29.76,SSE,148,9.0,9.0,72,0.00,,,0.00,0,Wunderground v.1.15,2013-10-04 06:01:00,
2013-10-04 01:07:00,75.3,66.0,29.76,SSE,160,10.0,13.0,73,0.00,,,0.00,0,Wunderground v.1.15,2013-10-04 06:07:00,
2013-10-04 01:13:00,75.2,65.9,29.76,SSE,152,11.0,11.0,73,0.00,,,0.00,0,Wunderground v.1.15,2013-10-04 06:13:00,
2013-10-04 01:19:00,75.2,65.9,29.76,SSE,160,11.0,14.0,73,0.00,,,0.00,0,Wunderground v.1.15,2013-10-04 06:19:00,
2013-10-04 01:25:00,75.3,65.6,29.76,SSE,148,11.0,12.0,72,0.00,,,0.00,0,Wunderground v.1.15,2013-10-04 06:25:00,
2013-10-04 01:31:00,75.3,65.6,29.76,SSE,147,11.0,13.0,72,0.00,,,0.00,0,Wunderground v.1.15,2013-10-04 06:31:00,
2013-10-04 01:37:00,75.1,65.5,29.76,SSE,150,11.0,16.0,72,0.00,,,0.00,0,Wunderground v.1.15,2013-10-04 06:37:00,
2013-10-04 01:43:00,75.0,65.4,29.76,SSE,166,11.0,17.0,72,0.00,,,0.00,0,Wunderground v.1.15,2013-10-04 06:43:00,
2013-10-04 01:49:00,74.9,65.7,29.76,SSE,147,11.0,17.0,73,0.00,,,0.00,0,Wunderground v.1.15,2013-10-04 06:49:00,
2013-10-04 01:55:00,74.8,65.6,29.76,SE,137,10.0,16.0,73,0.00,,,0.00,0,Wunderground v.1.15,2013-10-04 06:55:00,
2013-10-04 02:01:00,74.7,65.5,29.77,SSE,161,10.0,10.0,73,0.00,,,0.00,0,Wunderground v.1.15,2013-10-04 07:01:00,
2013-10-04 02:07:00,74.6,65.4,29.77,SSE,163,9.0,16.0,73,0.00,,,0.00,0,Wunderground v.1.15,2013-10-04 07:07:00,
2013-10-04 02:13:00,74.6,65.4,29.77,SE,145,10.0,16.0,73,0.00,,,0.00,0,Wunderground v.1.15,2013-10-04 07:13:00,
2013-10-04 02:19:00,74.6,65.8,29.77,SSE,157,10.0,16.0,74,0.00,,,0.00,0,Wunderground v.1.15,2013-10-04 07:19:00,
2013-10-04 02:25:00,74.6,65.8,29.77,SSE,152,9.0,16.0,74,0.00,,,0.00,0,Wunderground v.1.15,2013-10-04 07:25:00,
2013-10-04 02:31:00,74.6,65.8,29.77,SE,141,9.0,16.0,74,0.00,,,0.00,0,Wunderground v.1.15,2013-10-04 07:31:00,
2013-10-04 02:37:00,74.6,65.8,29.77,SSE,163,9.0,16.0,74,0.00,,,0.00,0,Wunderground v.1.15,2013-10-04 07:37:00,
2013-10-04 02:43:00,74.7,65.9,29.77,SSE,166,10.0,16.0,74,0.00,,,0.00,0,Wunderground v.1.15,2013-10-04 07:43:00,
2013-10-04 02:49:00,74.8,66.0,29.76,SSE,158,10.0,16.0,74,0.00,,,0.00,0,Wunderground v.1.15,2013-10-04 07:49:00,
2013-10-04 02:55:00,74.8,66.0,29.76,SSE,157,10.0,16.0,74,0.00,,,0.00,0,Wunderground v.1.15,2013-10-04 07:55:00,
2013-10-04 03:01:00,74.8,66.0,29.76,SSE,155,10.0,10.0,74,0.00,,,0.00,0,Wunderground v.1.15,2013-10-04 08:01:00,
2013-10-04 03:07:00,74.9,66.1,29.76,SSE,158,10.0,16.0,74,0.00,,,0.00,0,Wunderground v.1.15,2013-10-04 08:07:00,
2013-10-04 03:13:00,74.8,66.3,29.76,South,185,10.0,16.0,75,0.00,,,0.00,0,Wunderground v.1.15,2013-10-04 08:13:00,
2013-10-04 03:19:00,74.8,66.3,29.76,SSE,162,9.0,16.0,75,0.00,,,0.00,0,Wunderground v.1.15,2013-10-04 08:19:00,
2013-10-04 03:25:00,74.8,66.3,29.76,SSE,158,9.0,16.0,75,0.00,,,0.00,0,Wunderground v.1.15,2013-10-04 08:25:00,
2013-10-04 03:31:00,74.8,66.3,29.76,SSE,164,9.0,9.0,75,0.00,,,0.00,0,Wunderground v.1.15,2013-10-04 08:31:00,
2013-10-04 03:37:00,74.8,66.3,29.76,South,170,9.0,16.0,75,0.00,,,0.00,0,Wunderground v.1.15,2013-10-04 08:37:00,
2013-10-04 03:43:00,74.7,66.2,29.76,SSE,155,10.0,16.0,75,0.00,,,0.00,0,Wunderground v.1.15,2013-10-04 08:43:00,
2013-10-04 03:49:00,74.6,66.5,29.76,SSE,162,10.0,16.0,76,0.00,,,0.00,0,Wunderground v.1.15,2013-10-04 08:49:00,
2013-10-04 03:55:00,74.5,66.4,29.76,SSE,167,10.0,16.0,76,0.00,,,0.00,0,Wunderground v.1.15,2013-10-04 08:55:00,
2013-10-04 04:01:00,74.5,66.4,29.76,SSE,162,10.0,16.0,76,0.00,,,0.00,0,Wunderground v.1.15,2013-10-04 09:01:00,
2013-10-04 04:07:00,74.4,66.3,29.75,South,170,9.0,16.0,76,0.00,,,0.00,0,Wunderground v.1.15,2013-10-04 09:07:00,
2013-10-04 04:13:00,74.4,66.7,29.75,SSE,161,10.0,16.0,77,0.00,,,0.00,0,Wunderground v.1.15,2013-10-04 09:13:00,
2013-10-04 04:19:00,74.4,66.7,29.75,SSE,162,10.0,16.0,77,0.00,,,0.00,0,Wunderground v.1.15,2013-10-04 09:19:00,
2013-10-04 04:25:00,74.3,66.6,29.75,South,174,10.0,16.0,77,0.00,,,0.00,0,Wunderground v.1.15,2013-10-04 09:25:00,
2013-10-04 04:31:00,74.2,66.5,29.75,SSE,163,10.0,16.0,77,0.00,,,0.00,0,Wunderground v.1.15,2013-10-04 09:31:00,
2013-10-04 04:37:00,74.1,66.8,29.75,SE,130,10.0,17.0,78,0.00,,,0.00,0,Wunderground v.1.15,2013-10-04 09:37:00,
2013-10-04 04:43:00,74.1,66.8,29.75,SSE,155,10.0,16.0,78,0.00,,,0.00,0,Wunderground v.1.15,2013-10-04 09:43:00,
2013-10-04 04:49:00,74.1,66.8,29.75,SSE,167,10.0,16.0,78,0.00,,,0.00,0,Wunderground v.1.15,2013-10-04 09:49:00,
2013-10-04 04:55:00,74.2,66.9,29.75,SSE,160,10.0,16.0,78,0.00,,,0.00,0,Wunderground v.1.15,2013-10-04 09:55:00,
2013-10-04 05:01:00,74.4,67.1,29.75,SSE,162,9.0,9.0,78,0.00,,,0.00,0,Wunderground v.1.15,2013-10-04 10:01:00,
2013-10-04 05:07:00,74.4,67.1,29.75,SSW,196,8.0,16.0,78,0.00,,,0.00,0,Wunderground v.1.15,2013-10-04 10:07:00,
2013-10-04 05:13:00,74.4,67.1,29.75,SSE,167,8.0,16.0,78,0.00,,,0.00,0,Wunderground v.1.15,2013-10-04 10:13:00,
2013-10-04 05:19:00,74.4,67.1,29.74,South,170,8.0,16.0,78,0.00,,,0.00,0,Wunderground v.1.15,2013-10-04 10:19:00,
2013-10-04 05:25:00,74.4,67.1,29.74,SSE,156,9.0,16.0,78,0.00,,,0.00,0,Wunderground v.1.15,2013-10-04 10:25:00,
2013-10-04 05:31:00,74.5,67.2,29.75,South,173,10.0,16.0,78,0.00,,,0.00,0,Wunderground v.1.15,2013-10-04 10:31:00,
2013-10-04 05:37:00,74.6,66.9,29.74,SSE,158,10.0,16.0,77,0.00,,,0.00,0,Wunderground v.1.15,2013-10-04 10:37:00,
2013-10-04 05:43:00,74.5,66.8,29.75,SSE,162,10.0,16.0,77,0.00,,,0.00,0,Wunderground v.1.15,2013-10-04 10:43:00,
2013-10-04 05:49:00,74.6,66.9,29.75,South,175,10.0,16.0,77,0.00,,,0.00,0,Wunderground v.1.15,2013-10-04 10:49:00,
2013-10-04 05:55:00,74.6,66.9,29.74,South,172,9.0,16.0,77,0.00,,,0.00,0,Wunderground v.1.15,2013-10-04 10:55:00,
2013-10-04 06:01:00,74.6,66.9,29.75,South,172,10.0,10.0,77,0.00,,,0.00,0,Wunderground v.1.15,2013-10-04 11:01:00,
2013-10-04 06:07:00,74.5,66.8,29.75,South,179,10.0,16.0,77,0.00,,,0.00,0,Wunderground v.1.15,2013-10-04 11:07:00,
2013-10-04 06:13:00,74.4,67.1,29.75,SSE,164,9.0,16.0,78,0.00,,,0.00,0,Wunderground v.1.15,2013-10-04 11:13:00,
2013-10-04 06:19:00,74.4,67.1,29.75,SSE,165,9.0,16.0,78,0.00,,,0.00,0,Wunderground v.1.15,2013-10-04 11:19:00,
2013-10-04 06:25:00,74.4,67.1,29.75,South,170,10.0,16.0,78,0.00,,,0.00,0,Wunderground v.1.15,2013-10-04 11:25:00,
2013-10-04 06:31:00,74.2,66.9,29.75,South,174,10.0,10.0,78,0.00,,,0.00,0,Wunderground v.1.15,2013-10-04 11:31:00,
2013-10-04 06:37:00,74.1,66.8,29.75,SSE,164,10.0,16.0,78,0.00,,,0.00,0,Wunderground v.1.15,2013-10-04 11:37:00,
2013-10-04 06:43:00,74.1,66.8,29.75,SE,141,10.0,16.0,78,0.00,,,0.00,0,Wunderground v.1.15,2013-10-04 11:43:00,
2013-10-04 06:49:00,74.1,66.8,29.75,SSE,164,10.0,16.0,78,0.00,,,0.00,0,Wunderground v.1.15,2013-10-04 11:49:00,
2013-10-04 06:55:00,74.1,66.8,29.75,South,182,10.0,16.0,78,0.00,,,0.00,0,Wunderground v.1.15,2013-10-04 11:55:00,
2013-10-04 07:01:00,74.1,66.8,29.75,SSE,157,11.0,11.0,78,0.00,,,0.00,0,Wunderground v.1.15,2013-10-04 12:01:00,
2013-10-04 07:07:00,74.1,66.8,29.75,SSE,152,11.0,16.0,78,0.00,,,0.00,0,Wunderground v.1.15,2013-10-04 12:07:00,
2013-10-04 07:13:00,74.0,66.7,29.75,SSE,166,10.0,16.0,78,0.00,,,0.00,0,Wunderground v.1.15,2013-10-04 12:13:00,
2013-10-04 07:19:00,74.0,66.7,29.75,SSE,160,11.0,16.0,78,0.00,,,0.00,5,Wunderground v.1.15,2013-10-04 12:19:00,
2013-10-04 07:25:00,74.0,66.7,29.75,SSE,155,10.0,16.0,78,0.00,,,0.00,0,Wunderground v.1.15,2013-10-04 12:25:00,
2013-10-04 07:31:00,74.1,66.8,29.75,SSE,162,10.0,10.0,78,0.00,,,0.00,11,Wunderground v.1.15,2013-10-04 12:31:00,
2013-10-04 07:37:00,74.1,66.8,29.75,South,180,10.0,16.0,78,0.00,,,0.00,19,Wunderground v.1.15,2013-10-04 12:37:00,
2013-10-04 07:43:00,74.1,67.2,29.76,SSE,153,10.0,16.0,79,0.00,,,0.00,30,Wunderground v.1.15,2013-10-04 12:43:00,
2013-10-04 07:49:00,74.0,67.1,29.76,South,185,10.0,16.0,79,0.00,,,0.00,39,Wunderground v.1.15,2013-10-04 12:49:00,
2013-10-04 07:55:00,74.1,67.2,29.76,South,189,9.0,16.0,79,0.00,,,0.00,46,Wunderground v.1.15,2013-10-04 12:55:00,
2013-10-04 08:01:00,74.2,67.3,29.76,SSE,163,9.0,16.0,79,0.00,,,0.00,74,Wunderground v.1.15,2013-10-04 13:01:00,
2013-10-04 08:07:00,74.4,67.5,29.76,SSW,197,11.0,16.0,79,0.00,,,0.00,90,Wunderground v.1.15,2013-10-04 13:07:00,
2013-10-04 08:13:00,74.6,67.7,29.76,SE,138,11.0,15.0,79,0.00,,,0.00,102,Wunderground v.1.15,2013-10-04 13:13:00,
2013-10-04 08:19:00,74.7,67.4,29.76,South,170,11.0,16.0,78,0.00,,,0.00,88,Wunderground v.1.15,2013-10-04 13:19:00,
2013-10-04 08:25:00,74.8,67.5,29.76,South,171,11.0,16.0,78,0.00,,,0.00,88,Wunderground v.1.15,2013-10-04 13:25:00,
2013-10-04 08:31:00,74.8,67.8,29.77,South,175,12.0,12.0,79,0.00,,,0.00,176,Wunderground v.1.15,2013-10-04 13:31:00,
2013-10-04 08:37:00,75.0,67.7,29.76,SSE,157,12.0,16.0,78,0.00,,,0.00,98,Wunderground v.1.15,2013-10-04 13:37:00,
2013-10-04 08:43:00,75.0,67.7,29.77,SSE,168,12.0,18.0,78,0.00,,,0.00,113,Wunderground v.1.15,2013-10-04 13:43:00,
2013-10-04 08:49:00,75.3,68.0,29.77,SSE,166,13.0,20.0,78,0.00,,,0.00,178,Wunderground v.1.15,2013-10-04 13:49:00,
2013-10-04 08:55:00,75.6,68.3,29.77,SSE,167,14.0,16.0,78,0.00,,,0.00,225,Wunderground v.1.15,2013-10-04 13:55:00,
2013-10-04 09:01:00,76.1,68.4,29.77,South,177,13.0,13.0,77,0.00,,,0.00,121,Wunderground v.1.15,2013-10-04 14:01:00,
2013-10-04 09:07:00,75.9,68.2,29.77,South,172,12.0,16.0,77,0.00,,,0.00,144,Wunderground v.1.15,2013-10-04 14:07:00,
2013-10-04 09:13:00,75.8,68.4,29.77,SSE,163,13.0,17.0,78,0.00,,,0.00,139,Wunderground v.1.15,2013-10-04 14:13:00,
2013-10-04 09:19:00,75.7,68.4,29.77,SE,145,13.0,20.0,78,0.00,,,0.00,156,Wunderground v.1.15,2013-10-04 14:19:00,
2013-10-04 09:25:00,75.7,68.4,29.77,South,173,13.0,16.0,78,0.00,,,0.00,130,Wunderground v.1.15,2013-10-04 14:25:00,
2013-10-04 09:31:00,75.8,68.4,29.77,SSE,165,11.0,16.0,78,0.00,,,0.00,70,Wunderground v.1.15,2013-10-04 14:31:00,
2013-10-04 09:37:00,75.8,68.1,29.78,South,183,10.0,17.0,77,0.00,,,0.00,86,Wunderground v.1.15,2013-10-04 14:37:00,
2013-10-04 09:43:00,75.9,68.2,29.78,South,178,10.0,16.0,77,0.00,,,0.00,120,Wunderground v.1.15,2013-10-04 14:43:00,
2013-10-04 09:49:00,75.9,68.2,29.78,South,172,11.0,18.0,77,0.00,,,0.00,102,Wunderground v.1.15,2013-10-04 14:49:00,
2013-10-04 09:55:00,76.0,68.3,29.78,South,170,11.0,16.0,77,0.00,,,0.00,214,Wunderground v.1.15,2013-10-04 14:55:00,
2013-10-04 10:01:00,76.6,68.8,29.78,SSW,212,12.0,12.0,77,0.00,,,0.00,413,Wunderground v.1.15,2013-10-04 15:01:00,
2013-10-04 10:07:00,77.7,69.1,29.78,South,191,12.0,16.0,75,0.00,,,0.00,134,Wunderground v.1.15,2013-10-04 15:07:00,
2013-10-04 10:13:00,77.5,68.9,29.78,South,171,12.0,16.0,75,0.00,,,0.00,436,Wunderground v.1.15,2013-10-04 15:13:00,
2013-10-04 10:19:00,78.5,69.1,29.78,South,180,12.0,16.0,73,0.00,,,0.00,315,Wunderground v.1.15,2013-10-04 15:19:00,
2013-10-04 10:21:00,78.8,69.0,29.78,SSE,168,11.0,11.0,72,0.00,,,0.00,445,Wunderground v.1.15,2013-10-04 15:21:00,
2013-10-04 10:27:00,79.6,69.4,29.78,South,187,12.0,17.0,71,0.00,,,0.00,461,Wunderground v.1.15,2013-10-04 15:27:00,
2013-10-04 10:33:00,79.8,69.1,29.79,South,172,13.0,16.0,70,0.00,,,0.00,482,Wunderground v.1.15,2013-10-04 15:33:00,
2013-10-04 10:39:00,80.3,69.2,29.78,SSW,201,11.0,18.0,69,0.00,,,0.00,520,Wunderground v.1.15,2013-10-04 15:39:00,
2013-10-04 10:45:00,80.6,69.5,29.78,South,169,13.0,21.0,69,0.00,,,0.00,517,Wunderground v.1.15,2013-10-04 15:45:00,
2013-10-04 10:51:00,80.8,69.7,29.78,South,179,14.0,14.0,69,0.00,,,0.00,550,Wunderground v.1.15,2013-10-04 15:51:00,
2013-10-04 10:57:00,81.5,69.5,29.78,South,169,12.0,22.0,67,0.00,,,0.00,577,Wunderground v.1.15,2013-10-04 15:57:00,
2013-10-04 11:03:00,81.6,69.1,29.78,South,169,12.0,16.0,66,0.00,,,0.00,165,Wunderground v.1.15,2013-10-04 16:03:00,
2013-10-04 11:09:00,81.3,68.9,29.78,SSW,203,13.0,16.0,66,0.00,,,0.00,649,Wunderground v.1.15,2013-10-04 16:09:00,
2013-10-04 11:15:00,82.4,69.4,29.78,SSW,199,13.0,16.0,65,0.00,,,0.00,687,Wunderground v.1.15,2013-10-04 16:15:00,
2013-10-04 11:21:00,82.6,69.2,29.78,SSE,165,14.0,22.0,64,0.00,,,0.00,677,Wunderground v.1.15,2013-10-04 16:21:00,
2013-10-04 11:27:00,82.9,69.0,29.77,SSW,206,15.0,22.0,63,0.00,,,0.00,635,Wunderground v.1.15,2013-10-04 16:27:00,
2013-10-04 11:33:00,83.3,69.4,29.78,SSW,197,14.0,16.0,63,0.00,,,0.00,624,Wunderground v.1.15,2013-10-04 16:33:00,
2013-10-04 11:39:00,83.3,69.4,29.78,SSW,204,15.0,17.0,63,0.00,,,0.00,629,Wunderground v.1.15,2013-10-04 16:39:00,
2013-10-04 11:45:00,83.7,69.3,29.78,South,175,15.0,19.0,62,0.00,,,0.00,673,Wunderground v.1.15,2013-10-04 16:45:00,
2013-10-04 11:51:00,83.6,69.2,29.78,South,179,14.0,14.0,62,0.00,,,0.00,657,Wunderground v.1.15,2013-10-04 16:51:00,
2013-10-04 11:57:00,84.3,69.9,29.78,SSW,198,13.0,21.0,62,0.00,,,0.00,670,Wunderground v.1.15,2013-10-04 16:57:00,
2013-10-04 12:03:00,84.7,69.8,29.77,SSW,193,14.0,16.0,61,0.00,,,0.00,668,Wunderground v.1.15,2013-10-04 17:03:00,
2013-10-04 12:09:00,84.6,68.7,29.78,South,185,15.0,16.0,59,0.00,,,0.00,715,Wunderground v.1.15,2013-10-04 17:09:00,
2013-10-04 12:15:00,84.8,69.4,29.78,South,181,13.0,26.0,60,0.00,,,0.00,705,Wunderground v.1.15,2013-10-04 17:15:00,
2013-10-04 12:21:00,84.8,68.9,29.78,SSW,193,15.0,19.0,59,0.00,,,0.00,707,Wunderground v.1.15,2013-10-04 17:21:00,
2013-10-04 12:27:00,84.8,68.9,29.78,South,185,16.0,19.0,59,0.00,,,0.00,712,Wunderground v.1.15,2013-10-04 17:27:00,
2013-10-04 12:33:00,85.0,69.1,29.77,SW,215,13.0,16.0,59,0.00,,,0.00,726,Wunderground v.1.15,2013-10-04 17:33:00,
2013-10-04 12:59:00,86.1,68.6,29.78,South,189,13.0,16.0,56,0.00,,,0.00,708,Wunderground v.1.15,2013-10-04 17:59:00,
2013-10-04 13:05:00,86.1,68.6,29.77,South,179,13.0,17.0,56,0.00,,,0.00,715,Wunderground v.1.15,2013-10-04 18:05:00,
2013-10-04 13:11:00,86.4,68.8,29.77,South,184,13.0,16.0,56,0.00,,,0.00,717,Wunderground v.1.15,2013-10-04 18:11:00,
2013-10-04 13:17:00,86.6,68.5,29.77,SSW,195,13.0,16.0,55,0.00,,,0.00,729,Wunderground v.1.15,2013-10-04 18:17:00,
2013-10-04 13:23:00,86.1,68.6,29.77,South,170,14.0,20.0,56,0.00,,,0.00,171,Wunderground v.1.15,2013-10-04 18:23:00,
2013-10-04 13:29:00,86.5,68.4,29.76,SSW,210,14.0,21.0,55,0.00,,,0.00,719,Wunderground v.1.15,2013-10-04 18:29:00,
2013-10-04 13:35:00,87.6,68.9,29.76,SSW,198,13.0,16.0,54,0.00,,,0.00,715,Wunderground v.1.15,2013-10-04 18:35:00,
2013-10-04 13:41:00,87.7,69.0,29.76,South,172,13.0,13.0,54,0.00,,,0.00,722,Wunderground v.1.15,2013-10-04 18:41:00,
2013-10-04 13:47:00,87.5,68.8,29.76,South,183,12.0,16.0,54,0.00,,,0.00,735,Wunderground v.1.15,2013-10-04 18:47:00,
2013-10-04 13:53:00,87.9,68.1,29.76,South,183,11.0,16.0,52,0.00,,,0.00,717,Wunderground v.1.15,2013-10-04 18:53:00,
2013-10-04 13:59:00,88.1,68.8,29.75,SSW,208,10.0,16.0,53,0.00,,,0.00,712,Wunderground v.1.15,2013-10-04 18:59:00,
2013-10-04 14:05:00,88.2,69.5,29.75,SSE,148,12.0,16.0,54,0.00,,,0.00,700,Wunderground v.1.15,2013-10-04 19:05:00,
2013-10-04 14:11:00,88.1,68.8,29.75,South,179,13.0,13.0,53,0.00,,,0.00,703,Wunderground v.1.15,2013-10-04 19:11:00,
2013-10-04 14:17:00,88.6,68.7,29.75,South,182,11.0,16.0,52,0.00,,,0.00,701,Wunderground v.1.15,2013-10-04 19:17:00,
2013-10-04 14:23:00,88.6,68.7,29.75,South,182,11.0,16.0,52,0.00,,,0.00,696,Wunderground v.1.15,2013-10-04 19:23:00,
2013-10-04 14:29:00,88.6,68.7,29.75,SSW,213,11.0,16.0,52,0.00,,,0.00,717,Wunderground v.1.15,2013-10-04 19:29:00,
2013-10-04 14:35:00,89.0,69.1,29.75,South,170,11.0,16.0,52,0.00,,,0.00,700,Wunderground v.1.15,2013-10-04 19:35:00,
2013-10-04 14:41:00,89.1,69.2,29.75,South,185,11.0,16.0,52,0.00,,,0.00,731,Wunderground v.1.15,2013-10-04 19:41:00,
2013-10-04 14:47:00,89.4,68.3,29.75,South,172,11.0,16.0,50,0.00,,,0.00,705,Wunderground v.1.15,2013-10-04 19:47:00,
2013-10-04 14:53:00,89.3,68.8,29.75,SSW,212,12.0,16.0,51,0.00,,,0.00,679,Wunderground v.1.15,2013-10-04 19:53:00,
2013-10-04 14:59:00,88.7,68.2,29.75,South,187,13.0,16.0,51,0.00,,,0.00,664,Wunderground v.1.15,2013-10-04 19:59:00,
2013-10-04 15:05:00,89.3,68.8,29.75,South,189,12.0,21.0,51,0.00,,,0.00,682,Wunderground v.1.15,2013-10-04 20:05:00,
2013-10-04 15:11:00,89.3,67.6,29.75,SSE,156,13.0,16.0,49,0.00,,,0.00,612,Wunderground v.1.15,2013-10-04 20:11:00,
2013-10-04 15:17:00,89.2,68.7,29.74,SSE,156,13.0,17.0,51,0.00,,,0.00,645,Wunderground v.1.15,2013-10-04 20:17:00,
2013-10-04 15:23:00,89.5,68.4,29.75,South,190,11.0,16.0,50,0.00,,,0.00,645,Wunderground v.1.15,2013-10-04 20:23:00,
2013-10-04 15:29:00,88.9,67.9,29.75,SSE,148,11.0,16.0,50,0.00,,,0.00,633,Wunderground v.1.15,2013-10-04 20:29:00,
2013-10-04 15:35:00,88.5,67.5,29.75,South,181,13.0,16.0,50,0.00,,,0.00,629,Wunderground v.1.15,2013-10-04 20:35:00,
2013-10-04 15:41:00,89.1,68.0,29.75,South,170,11.0,16.0,50,0.00,,,0.00,598,Wunderground v.1.15,2013-10-04 20:41:00,
2013-10-04 15:47:00,89.2,68.1,29.75,South,169,11.0,16.0,50,0.00,,,0.00,548,Wunderground v.1.15,2013-10-04 20:47:00,
2013-10-04 15:53:00,88.5,67.5,29.75,South,181,10.0,16.0,50,0.00,,,0.00,543,Wunderground v.1.15,2013-10-04 20:53:00,
2013-10-04 15:59:00,88.3,67.9,29.75,South,181,11.0,16.0,51,0.00,,,0.00,585,Wunderground v.1.15,2013-10-04 20:59:00,
2013-10-04 16:05:00,88.7,67.1,29.75,South,187,11.0,22.0,49,0.00,,,0.00,603,Wunderground v.1.15,2013-10-04 21:05:00,
2013-10-04 16:11:00,87.9,66.4,29.75,South,170,12.0,12.0,49,0.00,,,0.00,608,Wunderground v.1.15,2013-10-04 21:11:00,
2013-10-04 16:17:00,87.9,66.4,29.75,SSW,210,11.0,19.0,49,0.00,,,0.00,557,Wunderground v.1.15,2013-10-04 21:17:00,
2013-10-04 16:23:00,88.3,66.1,29.75,SSW,206,11.0,16.0,48,0.00,,,0.00,167,Wunderground v.1.15,2013-10-04 21:23:00,
2013-10-04 16:29:00,88.0,65.8,29.75,South,185,11.0,16.0,48,0.00,,,0.00,167,Wunderground v.1.15,2013-10-04 21:29:00,
2013-10-04 16:35:00,88.6,66.4,29.75,SSW,199,11.0,16.0,48,0.00,,,0.00,457,Wunderground v.1.15,2013-10-04 21:35:00,
2013-10-04 16:41:00,88.7,66.5,29.75,SSE,167,12.0,21.0,48,0.00,,,0.00,501,Wunderground v.1.15,2013-10-04 21:41:00,
2013-10-04 16:47:00,89.1,66.9,29.74,South,177,12.0,21.0,48,0.00,,,0.00,459,Wunderground v.1.15,2013-10-04 21:47:00,
2013-10-04 16:53:00,88.8,66.0,29.74,SSE,164,12.0,17.0,47,0.00,,,0.00,401,Wunderground v.1.15,2013-10-04 21:53:00,
2013-10-04 16:59:00,88.2,66.0,29.74,SSE,168,12.0,17.0,48,0.00,,,0.00,33,Wunderground v.1.15,2013-10-04 21:59:00,
2013-10-04 17:05:00,86.8,65.9,29.74,SSE,168,10.0,16.0,50,0.00,,,0.00,26,Wunderground v.1.15,2013-10-04 22:05:00,
2013-10-04 17:11:00,85.8,65.6,29.74,SSW,209,9.0,16.0,51,0.00,,,0.00,35,Wunderground v.1.15,2013-10-04 22:11:00,
2013-10-04 17:17:00,85.3,65.1,29.74,SSW,211,10.0,16.0,51,0.00,,,0.00,35,Wunderground v.1.15,2013-10-04 22:17:00,
2013-10-04 17:23:00,85.0,64.8,29.75,South,170,9.0,16.0,51,0.00,,,0.00,28,Wunderground v.1.15,2013-10-04 22:23:00,
2013-10-04 17:29:00,84.8,65.2,29.74,SSW,193,8.0,16.0,52,0.00,,,0.00,25,Wunderground v.1.15,2013-10-04 22:29:00,
2013-10-04 17:35:00,84.7,65.7,29.75,SSE,150,9.0,16.0,53,0.00,,,0.00,25,Wunderground v.1.15,2013-10-04 22:35:00,
2013-10-04 17:41:00,84.7,65.7,29.75,South,172,10.0,16.0,53,0.00,,,0.00,28,Wunderground v.1.15,2013-10-04 22:41:00,
2013-10-04 17:47:00,84.4,62.0,29.78,West,278,11.0,33.0,47,0.00,,,0.00,5,Wunderground v.1.15,2013-10-04 22:47:00,
2013-10-04 17:53:00,78.5,63.5,29.79,WNW,299,23.0,29.0,60,0.00,,,0.01,53,Wunderground v.1.15,2013-10-04 22:53:00,
2013-10-04 17:59:00,73.1,62.7,29.77,NW,312,19.0,29.0,70,0.00,,,0.01,79,Wunderground v.1.15,2013-10-04 22:59:00,
2013-10-04 18:05:00,70.6,62.3,29.77,NW,313,9.0,16.0,75,0.00,,,0.01,56,Wunderground v.1.15,2013-10-04 23:05:00,
2013-10-04 18:11:00,69.4,61.9,29.77,NW,311,7.0,7.0,77,0.00,,,0.01,33,Wunderground v.1.15,2013-10-04 23:11:00,
2013-10-04 18:17:00,69.0,62.2,29.77,NNW,330,5.0,16.0,79,0.00,,,0.01,18,Wunderground v.1.15,2013-10-04 23:17:00,
2013-10-04 18:23:00,69.0,62.2,29.79,NNW,342,4.0,16.0,79,0.00,,,0.01,7,Wunderground v.1.15,2013-10-04 23:23:00,
2013-10-04 18:29:00,69.3,62.5,29.79,North,352,4.0,16.0,79,0.00,,,0.01,5,Wunderground v.1.15,2013-10-04 23:29:00,
2013-10-04 18:35:00,69.3,62.9,29.80,North,10,4.0,16.0,80,0.00,,,0.01,5,Wunderground v.1.15,2013-10-04 23:35:00,
2013-10-04 18:41:00,69.3,63.6,29.81,North,357,5.0,5.0,82,0.00,,,0.01,7,Wunderground v.1.15,2013-10-04 23:41:00,
2013-10-04 18:47:00,69.3,63.6,29.83,NW,310,4.0,16.0,82,0.00,,,0.02,9,Wunderground v.1.15,2013-10-04 23:47:00,
2013-10-04 18:55:00,69.2,63.8,29.84,West,274,5.0,16.0,83,1.83,,,0.11,25,Wunderground v.1.15,2013-10-04 23:55:00,
2013-10-04 19:01:00,68.9,63.9,29.85,West,274,2.0,2.0,84,0.24,,,0.18,12,Wunderground v.1.15,2013-10-05 00:01:00,
2013-10-04 19:07:00,68.6,63.6,29.84,West,274,0.0,16.0,84,0.07,,,0.18,5,Wunderground v.1.15,2013-10-05 00:07:00,
2013-10-04 19:13:00,68.7,63.7,29.85,West,274,0.0,16.0,84,0.04,,,0.18,0,Wunderground v.1.15,2013-10-05 00:13:00,
2013-10-04 19:19:00,68.5,63.5,29.85,West,275,0.0,16.0,84,0.00,,,0.18,0,Wunderground v.1.15,2013-10-05 00:19:00,
2013-10-04 19:25:00,68.5,63.5,29.86,West,275,0.0,16.0,84,0.00,,,0.18,0,Wunderground v.1.15,2013-10-05 00:25:00,
2013-10-04 19:31:00,68.7,64.0,29.87,NE,46,1.0,1.0,85,0.00,,,0.18,0,Wunderground v.1.15,2013-10-05 00:31:00,
2013-10-04 19:37:00,68.8,64.1,29.87,NNE,19,1.0,16.0,85,0.00,,,0.18,0,Wunderground v.1.15,2013-10-05 00:37:00,
2013-10-04 19:43:00,68.7,63.7,29.87,North,2,3.0,16.0,84,0.00,,,0.18,0,Wunderground v.1.15,2013-10-05 00:43:00,
2013-10-04 19:49:00,68.7,62.3,29.86,NNW,345,7.0,16.0,80,0.00,,,0.18,0,Wunderground v.1.15,2013-10-05 00:49:00,
2013-10-04 19:55:00,68.5,60.3,29.88,NNW,333,8.0,16.0,75,0.00,,,0.18,0,Wunderground v.1.15,2013-10-05 00:55:00,
2013-10-04 20:01:00,68.3,59.7,29.88,NNW,337,6.0,16.0,74,0.00,,,0.18,0,Wunderground v.1.15,2013-10-05 01:01:00,
2013-10-04 20:07:00,67.9,59.3,29.88,NNW,331,7.0,16.0,74,0.00,,,0.18,0,Wunderground v.1.15,2013-10-05 01:07:00,
2013-10-04 20:13:00,67.8,58.8,29.89,NNW,330,7.0,16.0,73,0.00,,,0.18,0,Wunderground v.1.15,2013-10-05 01:13:00,
2013-10-04 20:19:00,67.8,57.7,29.89,NW,309,8.0,16.0,70,0.00,,,0.18,0,Wunderground v.1.15,2013-10-05 01:19:00,
2013-10-04 20:25:00,67.6,54.6,29.89,NNW,346,11.0,16.0,63,0.00,,,0.18,0,Wunderground v.1.15,2013-10-05 01:25:00,
2013-10-04 20:31:00,67.5,54.0,29.90,North,2,11.0,11.0,62,0.00,,,0.18,0,Wunderground v.1.15,2013-10-05 01:31:00,
2013-10-04 20:37:00,67.1,53.6,29.91,North,352,10.0,16.0,62,0.00,,,0.18,0,Wunderground v.1.15,2013-10-05 01:37:00,
2013-10-04 20:43:00,66.6,53.2,29.91,NNW,330,8.0,16.0,62,0.00,,,0.18,0,Wunderground v.1.15,2013-10-05 01:43:00,
2013-10-04 20:49:00,66.3,51.5,29.92,North,2,8.0,16.0,59,0.00,,,0.18,0,Wunderground v.1.15,2013-10-05 01:49:00,
2013-10-04 20:55:00,66.3,50.6,29.93,NW,318,10.0,16.0,57,0.00,,,0.18,0,Wunderground v.1.15,2013-10-05 01:55:00,
2013-10-04 21:01:00,66.2,50.0,29.93,NNW,330,11.0,11.0,56,0.00,,,0.18,0,Wunderground v.1.15,2013-10-05 02:01:00,
2013-10-04 21:07:00,65.8,49.7,29.93,NNW,339,9.0,16.0,56,0.00,,,0.18,0,Wunderground v.1.15,2013-10-05 02:07:00,
2013-10-04 21:13:00,65.5,48.9,29.93,NNW,328,10.0,16.0,55,0.00,,,0.18,0,Wunderground v.1.15,2013-10-05 02:13:00,
2013-10-04 21:19:00,65.1,48.0,29.92,NW,326,13.0,16.0,54,0.00,,,0.18,0,Wunderground v.1.15,2013-10-05 02:19:00,
2013-10-04 21:25:00,64.9,47.9,29.93,NNW,331,11.0,16.0,54,0.00,,,0.18,0,Wunderground v.1.15,2013-10-05 02:25:00,
2013-10-04 21:31:00,64.6,47.1,29.93,North,2,11.0,11.0,53,0.00,,,0.18,0,Wunderground v.1.15,2013-10-05 02:31:00,
2013-10-04 21:37:00,64.4,46.4,29.95,NNW,332,11.0,16.0,52,0.00,,,0.18,0,Wunderground v.1.15,2013-10-05 02:37:00,
2013-10-04 21:43:00,64.3,45.8,29.97,NNW,329,9.0,16.0,51,0.00,,,0.18,0,Wunderground v.1.15,2013-10-05 02:43:00,
2013-10-04 21:49:00,64.3,45.8,29.97,NW,326,9.0,16.0,51,0.00,,,0.18,0,Wunderground v.1.15,2013-10-05 02:49:00,
2013-10-04 21:55:00,64.1,45.1,29.97,NNW,341,10.0,16.0,50,0.00,,,0.18,0,Wunderground v.1.15,2013-10-05 02:55:00,
2013-10-04 22:01:00,63.8,45.3,29.97,North,352,11.0,16.0,51,0.00,,,0.18,0,Wunderground v.1.15,2013-10-05 03:01:00,
2013-10-04 22:07:00,63.4,43.9,29.97,NNW,337,11.0,16.0,49,0.00,,,0.18,0,Wunderground v.1.15,2013-10-05 03:07:00,
2013-10-04 22:13:00,63.1,44.2,29.98,North,352,10.0,19.0,50,0.00,,,0.18,0,Wunderground v.1.15,2013-10-05 03:13:00,
2013-10-04 22:19:00,62.9,44.0,29.98,North,6,11.0,19.0,50,0.00,,,0.18,0,Wunderground v.1.15,2013-10-05 03:19:00,
2013-10-04 22:25:00,62.7,44.3,29.98,NW,326,11.0,16.0,51,0.00,,,0.18,0,Wunderground v.1.15,2013-10-05 03:25:00,
2013-10-04 22:31:00,62.5,42.5,29.99,NNW,327,12.0,12.0,48,0.00,,,0.19,0,Wunderground v.1.15,2013-10-05 03:31:00,
2013-10-04 22:37:00,62.2,42.8,29.99,NW,308,12.0,16.0,49,0.00,,,0.19,0,Wunderground v.1.15,2013-10-05 03:37:00,
2013-10-04 22:43:00,61.8,41.3,29.98,WNW,297,12.0,13.0,47,0.00,,,0.19,0,Wunderground v.1.15,2013-10-05 03:43:00,
2013-10-04 22:49:00,61.5,41.6,29.98,NNW,347,12.0,16.0,48,0.00,,,0.19,0,Wunderground v.1.15,2013-10-05 03:49:00,
2013-10-04 22:55:00,61.1,39.6,29.99,NW,312,13.0,19.0,45,0.00,,,0.19,0,Wunderground v.1.15,2013-10-05 03:55:00,
2013-10-04 23:01:00,60.7,39.2,29.99,NW,322,15.0,15.0,45,0.00,,,0.19,0,Wunderground v.1.15,2013-10-05 04:01:00,
2013-10-04 23:03:00,60.7,39.2,29.99,North,352,15.0,16.0,45,0.00,,,0.19,0,Wunderground v.1.15,2013-10-05 04:03:00,
2013-10-04 23:07:00,60.5,39.0,30.00,NNW,331,15.0,16.0,45,0.00,,,0.19,0,Wunderground v.1.15,2013-10-05 04:07:00,
2013-10-04 23:11:00,60.2,38.8,30.00,NW,318,13.0,13.0,45,0.00,,,0.19,0,Wunderground v.1.15,2013-10-05 04:11:00,
2013-10-04 23:15:00,60.1,39.2,30.00,NW,308,12.0,16.0,46,0.00,,,0.19,0,Wunderground v.1.15,2013-10-05 04:15:00,
2013-10-04 23:21:00,59.8,39.0,30.01,NW,314,11.0,16.0,46,0.00,,,0.19,0,Wunderground v.1.15,2013-10-05 04:21:00,
2013-10-04 23:27:00,59.6,38.8,30.00,NNW,328,11.0,16.0,46,0.00,,,0.19,0,Wunderground v.1.15,2013-10-05 04:27:00,
2013-10-04 23:33:00,59.2,36.7,30.01,NW,325,13.0,17.0,43,0.00,,,0.19,0,Wunderground v.1.15,2013-10-05 04:33:00,
2013-10-04 23:35:00,59.1,37.2,30.01,WNW,299,14.0,17.0,44,0.00,,,0.19,0,Wunderground v.1.15,2013-10-05 04:35:00,
2013-10-04 23:41:00,58.7,36.8,30.01,NNW,332,15.0,15.0,44,0.00,,,0.19,0,Wunderground v.1.15,2013-10-05 04:41:00,
2013-10-04 23:47:00,58.3,35.3,30.01,NW,308,16.0,22.0,42,0.00,,,0.19,0,Wunderground v.1.15,2013-10-05 04:47:00,
2013-10-04 23:53:00,58.0,36.2,30.01,NNW,337,17.0,17.0,44,0.00,,,0.19,0,Wunderground v.1.15,2013-10-05 04:53:00,
2013-10-04 23:59:00,57.8,35.4,30.01,NNW,337,16.0,17.0,43,0.00,,,0.00,0,Wunderground v.1.15,2013-10-05 04:59:00,